星链-4429 (STARLINK-4429 )

导读 | 豆包AI

STARLINK-4429是美国SpaceX星链星座的成员卫星,于2022年8月12日发射入轨。星链项目旨在构建全球卫星互联网星座,该卫星承担低轨宽带通信服务任务,为全球偏远地区、海洋及空域用户提供网络接入服务,是星链大规模星座组网进程中的一枚组网卫星,补充完善了低轨通信星座的覆盖能力。

基本信息
目录编号:
53495
目录名称:
STARLINK-4429
国际标识:
2022-099AG
轨道中心:
EARTH
卫星名称:
星链-4429
卫星全名:
星链-4429 (STARLINK-4429 )
卫星状态:
在轨 (已飞行1311 天)
发射日期:
2022-08-12 UTC
国别 :
美国 (US)
星等 :
--
轨道信息
数据来源 国际轨道数据
星历时间: 2026-03-15T05:07:35+0800
9小时前
查看轨道信息
半长轴: 6941.134km
偏心率: 0.0000642
轨道倾角: 97.603°
近地点辐角 131.889°
升交点赤经 195.303°
平近点角 228.239°
近地点: 562.551km
远地点: 563.443km
周期: 95.919分钟
每日圈数: 15.012642
详细信息
固有亮度:
5
最大亮度:
2.5
卫星平台:
Starlink v1.5
覆盖范围:
全球
运营商:
太空探索技术公司
运营商所在国:
美国
制造商(研发单位):
太空探索技术公司
制造商所在国:
美国
使用方式:
暂无
卫星简介
星链(Starlink)计划是由太空探索技术公司(SpaceX)提出的一个巨型低轨卫星互联网星座项目,计划在2019年至2024年间在太空搭建由约1.2万颗卫星组成的“星链”网络,其中1584颗将部署在地球上空550千米处的近地轨道,并从2020年开始工作。该卫星仍在工作。
2D轨道图
3D轨道图
轨道高度分析图
轨道倾角分析图
轨道综合分析图
查看轨道综合分析图